Dewpoint
23 19 17 20 20 19 18 18 19 21 24 26 26 24 19 22 22 21 22 24 26 28 30 31 33 35 36 39 42 42 42 44 42 39 37 36 36 36 37 37 39 40 41 44
20 17 19 21 21 18 19 18 17 22 24 27 26 21 20 23 25 27 27 28 28 29 29 31 33 35 37 38 38 34 33 34 34 34 35 36 36 36 37 38 40 40 40 40
19 18 22 21 24 23 23 19 20 22 25 27 24 21 22 21 24 25 27 28 28 28 29 29 30 32 33 33 33 33 34 36 38 39 37 38 38 38 36 35 36 37 40 40
18 22 25 25 24 25 21 24 28 26 26 21 25 17 22 22 22 24 25 26 28 28 29 30 31 33 35 36 40 39 39 39 39 40 38 37 35 34 35 36 36 38 39 40
17 23 25 25 24 27 27 30 29 28 27 26 26 20 22 24 21 21 25 26 28 29 31 33 37 38 38 39 40 40 39 39 40 39 37 36 36 36 36 36 35 35 37 39
27 29 27 27 27 29 30 29 26 28 27 22 25 23 22 24 24 24 26 28 30 31 31 35 38 38 38 40 41 41 39 39 40 40 36 37 37 37 37 36 35 34 35 36
28 29 31 30 27 30 30 24 17 18 19 19 26 24 23 26 26 26 27 29 34 37 36 36 37 37 37 38 39 39 39 38 39 40 36 36 38 38 36 35 34 33 34 34
26 21 30 33 30 28 30 28 23 12 17 21 27 22 25 30 31 30 33 33 33 34 36 37 37 37 37 38 39 40 39 38 39 40 38 37 38 37 35 35 35 35 34 35
28 25 32 33 33 31 29 28 30 26 26 26 25 27 29 30 30 32 31 33 33 34 35 36 37 38 39 39 39 40 40 38 39 41 38 37 37 36 35 36 34 33 35 37
33 26 30 31 32 32 30 31 25 28 20 18 22 25 22 28 29 31 32 34 35 36 35 36 36 38 39 40 40 41 41 39 39 40 36 36 36 36 34 31 32 33 35 39
31 29 24 29 30 30 30 28 29 29 29 25 24 23 30 29 31 31 33 35 36 37 37 37 37 38 39 40 40 40 41 39 40 36 36 37 35 31 28 30 32 34 37 34
33 30 21 25 31 34 32 28 27 22 20 27 27 23 29 31 32 32 34 36 37 38 38 38 38 39 40 39 38 40 41 40 36 36 37 35 30 27 29 31 31 32 30 29
32 28 17 15 26 29 31 32 30 30 30 27 25 23 29 32 31 33 35 36 37 38 38 38 38 39 38 36 38 40 39 37 36 37 37 33 31 30 35 36 36 36 35 34
34 30 24 13 17 26 27 31 31 31 29 26 27 26 28 29 30 32 34 37 37 38 39 39 39 35 34 36 38 38 37 36 36 38 36 35 34 35 36 36 36 36 35 34
35 31 31 30 31 31 30 31 31 31 31 29 28 28 29 31 33 33 37 37 37 37 39 38 34 32 33 35 37 36 35 36 38 37 37 37 37 37 37 33 32 33 32 32
35 28 32 30 32 32 30 31 32 32 32 32 32 31 33 34 35 37 36 36 36 39 36 34 33 32 32 36 35 34 34 36 38 37 31 29 29 29 29 30 30 31 28 24
34 33 31 20 30 30 22 22 28 29 30 28 26 26 31 33 36 35 35 37 38 34 34 31 27 31 34 35 34 33 34 34 34 29 28 28 30 26 23 22 21 20 20 20
34 33 31 29 29 19 21 28 28 28 29 29 28 31 33 35 36 36 38 36 36 35 31 27 28 34 36 34 32 32 31 30 29 28 30 30 26 22 22 21 20 19 19 19
36 34 29 27 26 27 28 27 26 26 26 30 34 36 36 37 37 36 37 37 35 33 32 30 33 36 34 31 34 27 26 26 27 28 27 23 23 22 21 20 19 19 19 19
34 32 31 29 26 23 25 27 31 33 27 35 35 36 37 37 34 36 36 36 33 31 29 30 35 34 31 31 34 32 29 29 26 25 23 22 22 21 20 20 19 19 19 18
28 30 28 28 27 28 30 31 31 28 31 37 36 36 37 36 36 37 37 35 32 31 29 32 35 31 30 33 34 30 25 24 26 23 22 21 21 21 21 19 19 18 17 20
25 25 25 27 26 23 30 31 30 35 39 37 37 39 37 37 36 33 33 33 30 30 30 32 33 30 31 33 32 26 27 30 32 23 22 21 21 21 19 19 18 17 18 20
27 28 27 30 29 30 31 33 38 39 39 39 39 38 37 35 32 30 32 31 31 30 30 32 31 30 31 33 31 28 31 33 27 23 22 21 22 21 20 18 19 18 19 20
33 34 34 34 35 34 36 39 41 41 39 39 38 37 35 32 31 32 31 31 29 30 30 31 31 30 31 33 31 31 30 26 22 22 22 22 22 22 22 21 21 19 20 19
35 37 35 35 36 36 37 40 41 39 39 37 36 35 34 33 31 30 30 29 30 31 31 31 31 31 32 32 31 26 23 23 22 22 22 23 24 23 22 22 20 20 21 19
38 37 35 33 36 38 39 40 41 38 35 33 33 31 29 30 29 30 29 29 31 30 30 29 28 28 26 25 23 23 23 23 23 22 23 24 23 22 20 19 19 20 20 20
Wind_Speed
8 13 9 4 2 4 4 2 3 4 2 7 5 7 11 12 12 9 7 7 9 7 3 3 3 2 5 6 9 10 7 1 3 3 4 4 5 6 7 6 9 12 12 14
7 9 1 6 5 3 2 3 2 4 1 3 6 5 5 12 9 7 9 10 10 9 6 4 3 3 3 5 5 7 8 7 6 3 3 3 5 5 8 9 12 12 12 13
8 1 3 3 7 7 2 2 3 5 9 2 5 3 7 5 7 7 7 6 6 8 8 6 5 7 10 10 9 8 7 7 8 7 5 5 3 5 6 14 16 18 17 16
7 4 5 5 5 4 3 2 8 6 2 2 5 4 6 5 4 3 4 4 4 4 6 8 8 9 9 8 10 14 13 12 11 9 8 8 7 10 10 13 14 18 17 17
1 4 5 7 3 3 2 5 2 1 4 2 6 1 2 4 2 2 2 3 5 7 8 9 10 11 13 12 12 11 10 11 9 7 8 8 9 8 11 14 18 19 17 16
3 2 3 3 3 2 7 2 3 3 3 3 0 3 2 3 6 5 2 6 9 8 7 8 9 9 10 8 8 7 7 8 9 9 10 11 11 13 17 22 23 22 20 18
5 4 4 5 5 3 11 5 1 0 2 1 0 1 2 8 8 5 7 7 10 10 11 10 9 8 8 10 10 10 11 12 13 11 9 11 14 17 22 23 22 25 22 20
4 0 5 7 2 3 5 4 3 2 3 5 3 1 3 6 8 7 10 8 9 9 7 6 2 1 3 6 9 11 13 15 16 15 14 13 15 16 18 19 22 21 20 12
3 1 3 5 4 2 2 6 2 5 2 3 3 1 5 6 14 12 10 10 10 10 8 5 2 4 7 11 16 15 14 14 13 13 10 12 14 17 19 22 20 18 12 4
1 1 3 3 1 10 5 5 2 5 3 4 6 5 4 1 6 3 5 7 8 8 12 13 13 14 10 10 10 10 9 10 10 10 9 12 15 16 18 18 18 14 3 1
2 1 1 1 5 1 2 2 6 4 2 2 4 7 7 6 2 2 3 0 4 7 11 12 14 15 12 8 11 10 9 10 11 9 12 14 15 15 15 12 11 5 4 4
2 2 2 2 2 1 2 3 3 1 2 2 1 13 5 7 2 2 5 3 5 8 11 12 13 12 8 10 13 14 12 12 9 11 11 11 11 11 11 10 9 8 8 7
1 2 3 1 2 1 1 3 4 5 2 10 5 9 4 8 8 9 6 7 11 15 14 13 13 11 14 15 14 13 11 8 12 13 10 9 9 8 8 9 11 11 11 10
2 2 4 6 4 2 8 6 7 7 7 9 21 26 31 25 20 11 9 8 15 16 13 10 10 13 13 12 11 12 9 10 10 7 5 5 5 5 8 10 10 10 9 10
2 4 5 9 13 11 15 17 14 16 17 11 21 21 27 21 15 9 8 15 17 18 12 12 12 11 12 13 12 10 13 10 7 6 7 8 8 6 5 5 7 8 11 12
1 3 1 7 5 6 16 20 15 16 18 17 24 27 23 14 4 5 15 16 16 11 7 9 12 11 11 13 13 14 12 7 4 4 4 5 6 9 12 13 13 12 13 12
1 4 1 5 6 10 14 6 5 4 7 8 10 12 7 6 5 18 20 14 6 5 7 11 13 12 12 13 13 16 11 5 2 0 4 7 9 10 9 10 12 12 11 10
3 4 1 4 6 6 5 3 8 12 20 11 12 8 7 10 19 14 9 6 6 8 13 14 14 15 14 14 16 9 3 3 3 5 7 9 10 9 10 11 11 11 10 11
4 5 3 3 5 10 18 10 1 3 12 3 4 11 16 21 16 4 5 5 3 12 16 14 15 14 12 14 10 6 7 7 8 8 9 8 8 10 10 10 11 11 11 10
4 3 4 3 5 7 5 2 4 4 12 4 11 22 29 20 25 12 4 10 17 16 16 18 15 11 11 11 7 9 12 9 11 8 7 6 7 8 9 9 10 9 9 9
3 1 6 9 8 12 9 4 1 3 5 8 15 21 15 8 4 7 9 18 17 19 21 19 13 12 11 10 9 10 8 9 10 8 6 5 6 6 7 8 8 9 10 9
7 6 8 3 5 8 2 3 5 8 15 14 14 5 8 10 7 10 14 17 19 20 21 19 13 14 11 10 9 10 11 11 9 8 6 5 5 6 7 8 9 10 10 11
7 9 3 10 10 6 4 14 7 4 3 6 5 1 6 1 9 14 15 19 19 19 19 15 14 16 13 10 9 12 15 9 10 8 6 6 6 7 8 9 10 11 11 11
4 5 8 5 10 18 15 7 4 3 2 2 2 2 6 10 14 17 17 16 16 18 18 17 16 17 16 12 9 10 12 9 8 8 7 5 6 9 10 8 9 10 11 12
12 5 7 12 23 16 6 3 4 5 4 3 6 8 10 12 16 16 15 16 16 17 18 18 17 17 15 13 13 9 9 5 8 8 6 5 5 7 9 7 7 9 7 8
8 12 9 14 13 9 6 7 2 6 3 1 7 11 12 12 16 13 18 16 14 17 18 20 19 15 13 12 9 9 7 6 6 7 4 3 5 5 6 8 9 4 6 9
Wind_Direction
26 77 66 52 52 139 154 183 266 262 194 339 348 331 3 5 48 64 80 107 127 113 47 26 31 121 152 160 170 187 195 343 347 357 337 330 342 330 310 304 297 285 279 276
71 74 102 97 63 102 143 226 287 270 314 356 344 15 11 34 45 57 89 95 108 113 112 101 106 110 95 115 54 39 35 24 15 345 322 307 307 303 303 318 317 314 304 299
102 74 86 119 47 30 9 86 12 304 329 69 346 70 28 35 59 60 67 100 124 128 128 131 94 64 40 42 28 27 31 42 45 28 6 341 320 322 332 340 334 330 321 314
71 24 70 70 68 26 15 59 309 277 274 222 353 163 30 4 64 66 120 136 105 48 17 17 22 34 35 49 66 78 70 51 39 29 25 23 3 347 336 329 319 319 320 320
69 64 48 50 6 6 293 329 300 204 173 141 2 119 30 26 42 302 326 359 23 27 32 47 59 73 70 63 60 57 51 43 34 33 33 24 13 351 334 330 326 323 316 312
75 342 44 336 323 8 323 46 66 78 116 154 306 2 48 23 336 343 6 29 27 11 22 69 72 73 66 52 46 41 30 27 21 19 18 15 1 347 340 339 336 329 321 318
6 13 340 14 358 13 13 40 355 332 17 215 300 351 75 13 19 13 36 29 23 21 39 62 62 55 32 23 17 7 2 2 9 6 360 355 350 348 342 335 325 316 313 313
46 248 13 354 36 318 11 40 67 332 329 311 328 235 129 66 43 58 36 56 57 51 54 61 65 122 358 10 12 3 5 354 356 357 354 352 347 339 327 317 313 308 308 298
18 276 353 34 17 7 7 50 125 96 74 302 310 250 254 316 28 36 65 53 36 25 23 13 310 292 347 1 11 6 356 343 335 338 337 335 332 325 319 314 311 310 306 216
59 326 8 320 322 45 73 126 19 35 346 306 302 274 233 112 22 59 67 44 27 14 5 348 337 335 336 351 346 335 329 322 319 326 333 328 325 325 321 320 317 315 298 209
59 76 312 4 24 7 25 55 66 108 117 232 285 267 197 176 171 41 186 244 356 340 333 325 321 325 319 312 327 328 322 325 336 347 338 332 333 336 337 336 342 358 352 327
16 123 309 135 112 342 117 130 102 107 238 239 251 272 220 190 184 302 245 236 305 307 320 317 321 328 332 330 338 340 345 348 350 330 326 341 349 358 6 13 23 22 13 36
170 16 340 76 55 36 126 175 132 123 131 239 246 268 200 230 282 307 307 323 315 311 323 331 337 345 346 350 345 345 347 346 337 338 342 359 4 13 13 7 4 10 9 15
94 141 208 244 259 243 266 232 198 209 248 256 246 272 284 286 294 310 316 297 301 304 301 327 345 353 347 323 340 348 339 337 336 332 344 349 345 342 347 342 334 338 346 349
96 245 228 258 272 282 275 259 238 231 238 248 273 278 280 288 297 302 324 309 306 310 337 1 343 322 323 340 328 324 331 334 337 336 338 338 323 347 342 322 328 319 320 322
56 257 270 291 322 308 288 279 259 242 248 251 262 269 282 289 218 274 314 306 314 343 7 321 294 316 316 330 330 321 319 330 321 306 6 14 345 330 340 331 331 332 333 341
220 178 151 273 339 314 290 264 181 205 219 269 279 301 353 311 301 314 320 331 28 31 345 321 318 312 325 326 326 321 318 317 268 295 310 315 329 338 343 342 342 339 337 340
163 140 185 280 350 287 272 238 253 268 277 273 282 338 353 334 322 315 27 68 43 348 312 297 313 321 322 325 322 310 277 245 249 277 307 324 334 338 338 342 339 337 336 335
152 150 221 245 233 294 293 292 156 227 292 13 38 345 332 324 324 320 57 52 328 268 275 306 314 313 320 322 315 260 270 270 270 288 317 329 338 331 338 340 334 330 327 331
67 74 203 181 268 276 261 359 14 148 293 135 352 336 318 311 299 301 346 310 292 286 299 306 308 294 307 316 301 284 285 285 291 302 314 322 326 333 336 330 323 323 322 322
294 286 242 251 258 267 269 346 242 317 313 286 312 309 304 325 1 302 294 286 292 298 305 310 289 284 303 306 306 297 285 273 272 281 290 312 321 325 322 313 312 318 319 314
268 275 260 174 240 286 234 275 307 314 301 279 316 8 69 327 350 311 289 295 309 315 317 311 294 299 301 300 295 282 276 286 277 260 272 296 308 313 302 300 307 318 320 318
268 205 239 195 235 288 241 289 323 325 346 16 42 322 21 352 281 302 305 310 308 312 316 315 304 300 295 289 273 274 280 287 276 244 263 282 305 303 298 299 310 317 324 326
255 201 242 259 250 267 278 302 81 99 87 230 48 244 253 290 311 309 305 306 317 321 321 320 314 306 296 300 299 285 297 294 256 255 268 289 304 314 311 304 309 316 326 332
261 197 242 251 288 281 276 268 255 180 87 148 227 271 292 302 303 298 298 313 317 319 326 327 317 306 301 314 307 308 305 282 264 270 278 286 308 318 320 321 318 326 332 336
210 237 244 268 297 308 353 360 113 136 167 320 326 313 307 302 304 314 314 314 318 326 329 329 323 312 315 316 319 339 354 338 303 294 295 292 316 333 333 332 330 338 351 354